ftp.onem2m.org - /Meetings/ARC/20170328_ARC28_Sophia Antipolis/


[To Parent Directory]

3/20/2017 11:10 AM 883200 ARC-2017-0036R03-group_multicast_solution_resource_update.DOC
3/20/2017 11:10 AM 749056 ARC-2017-0037R02-group_multicast_solution_operation_update.DOC
3/20/2017 2:27 AM 600064 ARC-2017-0090R02-TR-0024_other_sections.DOC
3/20/2017 2:27 AM 442368 ARC-2017-0091R01-3GPP_TS_0001_to_TS_0026.DOC
3/20/2017 2:27 AM 818176 ARC-2017-0092R01-TS-0001_3GPP_annex_move.DOC
3/20/2017 2:27 AM 924160 ARC-2017-0101R01-TR-0024_clean_up.DOC
3/19/2017 10:55 AM 172544 ARC-2017-0107-CR_TR-0031_Fixing_Creator_Attribute_Check_in_Clause_6.DOC
3/19/2017 11:07 AM 387072 ARC-2017-0110-resource-announcement-figure-update-R1.DOC
3/19/2017 11:07 AM 387584 ARC-2017-0111-resource-announcement-figure-update-R2.DOC
3/19/2017 11:07 AM 266240 ARC-2017-0112-resource-announcement-figure-update-R2.DOC
3/19/2017 11:07 AM 266240 ARC-2017-0112R01-resource-announcement-figure-update-R3.DOC
3/19/2017 11:07 AM 147285 ARC-2017-0113-Adding_common_attributes.DOCX
3/24/2017 6:51 AM 149474 ARC-2017-0113R01-Adding_common_attributes.DOCX
3/19/2017 11:14 AM 206769 ARC-2017-0115-Resource_Type_group_Rel-3.DOCX
3/20/2017 2:27 AM 174592 ARC-2017-0116-Resource_Type_semanticDescriptor.DOC
3/20/2017 2:27 AM 175104 ARC-2017-0117-Resource_Type_semanticDescriptor_Rel-2.DOC
3/20/2017 2:27 AM 116736 ARC-2017-0118-Summary_of_Response_Message_Rel-3.DOC
3/20/2017 2:27 AM 116736 ARC-2017-0119-Summary_of_Response_Message_Rel-2.DOC
3/20/2017 2:27 AM 289792 ARC-2017-0120-TR-0024_Communication_Patterns_corrections.DOC
3/20/2017 6:47 AM 438272 ARC-2017-0121R01-TR-0026_maintaining_AE_contact_info.DOC
3/20/2017 2:27 AM 181760 ARC-2017-0122-Triggering_Clarifications.DOC
3/20/2017 2:27 AM 200192 ARC-2017-0123-CR-TR-0020-Group_Fanout_of_Transactions.DOC
3/20/2017 2:28 AM 176640 ARC-2017-0124-Cross-Resource_Subscription_Details.DOC
3/20/2017 2:28 AM 108032 ARC-2017-0125-Supporting_key_value_pair_query_R2.DOC
3/20/2017 2:28 AM 216576 ARC-2017-0126-Supporting_key_value_pair_query_R3.DOC
3/20/2017 2:28 AM 68608 ARC-2017-0127-TR_0028_introduction.DOC
3/20/2017 2:28 AM 144896 ARC-2017-0128-TR_0028_OSGi_interworking.DOC
3/20/2017 2:28 AM 581632 ARC-2017-0129-Object_Identifier_Solution.DOC
3/20/2017 6:47 AM 45503 ARC-2017-0130-skeleton_of_WI-0072_Modbus_Interworking.ZIP
3/20/2017 6:47 AM 192512 ARC-2017-0131-Modbus_Introduction.DOC
3/20/2017 6:48 AM 4359674 ARC-2017-0132-TR-0018_New_Baseline.RAR
3/20/2017 6:48 AM 232960 ARC-2017-0133-Procedure_Mapping_for_OPC-UA_IWK.DOC
3/20/2017 8:42 AM 72192 ARC-2017-0134-TS_0033_Introduction.DOC
3/20/2017 8:42 AM 67584 ARC-2017-0135-TS_0033_General_Interworking_architecture.DOC
3/20/2017 8:42 AM 103936 ARC-2017-0136-TS_0033_IPE_based_Interworking.DOC
3/20/2017 8:42 AM 122368 ARC-2017-0137-TS_0033_Direct_Interworking.DOC
3/20/2017 8:43 AM 71680 ARC-2017-0138-TS_0033_Mapping_rule_of_services.DOC
3/20/2017 8:43 AM 159744 ARC-2017-0139-resource_representation_of_device.PPT
3/20/2017 11:10 AM 1801728 ARC-2017-0140-AE_Authorization_Relationship_Update_Parameters.DOC
3/20/2017 11:10 AM 397312 ARC-2017-0141-TR-0024_UE_Reachability_Solution.DOC
3/20/2017 11:10 AM 335872 ARC-2017-0142-Distributed_Authorization_Align_with_Existing_Name.DOC